Home   Weather   Quetta   Past weeks

Flag for Pakistan Past Weather in Quetta, Pakistan — Yesterday and Last 2 Weeks

Now
63 °F

Haze.


Feels Like: 63 °F
Forecast: 37 / 71 °F
Wind: No wind

Location: Sukkur

Current Time: Dec 4, 2016 at 3:02:20 am

Latest Report: Dec 4, 2016 at 12:00 am


Visibility: 2 mi

Pressure: 30.07 "Hg (24.65 "Hg at 1686m altitude)

Humidity: 77%

Dew Point: 55 °F

Location of QuettaLocation

Past Weather in Quetta — Graph

°F

Quetta Temperature Yesterday

Maximum temperature yesterday: 86 °F (at 3:00 pm)
Minimum temperature yesterday: 55 °F (at 8:00 am)
Average temperature yesterday: 70 °F

High & Low Weather Summary for the Past Weeks

 TemperatureHumidityPressure
High90 °F (Nov 19, 4:00 pm)94% (Nov 21, 5:00 am)30.09 "Hg (Nov 21, 5:00 am)
Low55 °F (Nov 19, 7:00 am)25% (Nov 24, 2:00 pm)29.77 "Hg (Nov 19, 4:00 pm)
Average72 °F62%29.93 "Hg
* Reported Nov 19 12:00 am — Dec 4 12:00 am, Quetta, Weather by CustomWeather, © 2016

Note: Actual official high and low records may vary slightly from our data, if they occured in-between our weather recording intervals... More about our weather records

Advertising

Quetta Weather History for the Previous 24 Hours

Scroll right to see more
 ConditionsComfort  
Time TempWeatherWind HumidityBarometerVisibility
12:00 am
Sun, Dec 4
63 °FHaze.No wind77%30.07 "Hg2 mi
11:00 pm
Sat, Dec 3
64 °FHaze.No wind73%30.09 "Hg2 mi
10:00 pm66 °FHaze.No wind68%30.07 "Hg2 mi
9:00 pm66 °FHaze.No wind73%30.07 "Hg2 mi
8:00 pm68 °FHaze.No wind73%30.04 "Hg2 mi
7:00 pm73 °FHaze.No wind61%30.04 "Hg2 mi
6:00 pm77 °FHaze.No wind54%30.01 "Hg2 mi
5:00 pm84 °FHaze.No wind35%29.98 "Hg2 mi
4:00 pm86 °FHaze.No wind35%29.98 "Hg2 mi
3:00 pm86 °FHaze.No wind35%30.01 "Hg2 mi
2:00 pm84 °FHaze.No wind35%30.01 "Hg2 mi
1:00 pm81 °FHaze.No wind42%30.04 "Hg2 mi
12:00 pm79 °FHaze.No wind42%30.07 "Hg1 mi
11:00 am75 °FClear.No wind54%30.09 "Hg1 mi
10:00 am68 °FFog.No wind73%30.09 "Hg1 mi
9:00 am59 °FFog.No wind82%30.07 "Hg1 mi
8:00 am55 °FFog.No wind94%30.07 "Hg0 mi
7:00 am57 °FFog.No wind94%30.04 "Hg1 mi
6:00 am57 °FCool.No wind94%30.01 "HgN/A
5:30 am57 °FFog.No wind88%30.01 "Hg1 mi
3:00 am61 °FHaze.No wind83%30.04 "Hg1 mi
Weather by CustomWeather, © 2016

See weather overviewHow to use our weather pages